EW8359 Weather Reports


Display with metric or nautical units.
time (UTC)temp
F
wind
direction
speed
MPH
gust
MPH
rain 1hr
in
rain 24hr
in
rain mn
in
humidity
%
barometer
mb
20260904030048 64 86 0.0 1.0 0.00 0.19 0.19 90 1009.7
20260904024558 64 86 0.0 0.0 0.00 0.19 0.19 90 1009.9
20260904023047 64 86 0.0 0.0 0.00 0.19 0.19 90 1010.1
20260904021553 64 86 0.0 1.0 0.00 0.19 0.19 90 1010.2
20260904020046 64 86 0.0 0.0 0.00 0.19 0.19 90 1010.1
20260904014551 64 86 0.0 0.0 0.00 0.19 0.19 90 1010.3
20260904013106 64 86 0.0 1.0 0.00 0.19 0.19 90 1010.5
20260904011544 64 86 0.0 1.0 0.00 0.19 0.19 90 1010.3
20260904010045 64 86 0.0 1.0 0.00 0.19 0.19 90 1010.5
20260904004544 64 86 0.0 1.0 0.00 0.19 0.19 90 1010.4
20260904003044 64 86 0.0 1.0 0.00 0.19 0.19 90 1010.2
20260904001557 64 86 0.0 1.0 0.00 0.19 0.19 90 1010.0
20260904000042 64 86 0.0 0.0 0.00 0.19 0.19 90 1009.9
20260903234542 64 86 0.0 1.0 0.00 0.19 0.19 90 1009.9
20260903233044 64 86 0.0 1.0 0.00 0.19 0.19 90 1009.7
20260903231541 64 86 0.0 0.0 0.00 0.19 0.19 89 1010.1
20260903230038 64 86 0.0 0.0 0.00 0.19 0.19 89 1010.3
20260903224541 64 86 0.0 1.0 0.00 0.19 0.19 89 1010.0
20260903223041 64 86 0.0 1.0 0.00 0.19 0.19 89 1010.1
20260903221536 64 86 0.0 1.0 0.00 0.19 0.19 89 1010.2
20260903220035 64 86 0.0 2.0 0.00 0.19 0.19 89 1010.2
20260903214538 64 86 0.0 1.0 0.00 0.19 0.19 89 1010.3
20260903213047 64 86 0.0 1.0 0.00 0.19 0.19 89 1010.4
20260903211534 64 86 0.0 2.0 0.00 0.19 0.19 89 1010.3
20260903210034 65 86 0.0 1.0 0.00 0.19 0.19 89 1010.3
20260903204533 65 86 0.0 1.0 0.00 0.19 0.19 89 1010.4
20260903203031 65 86 0.0 2.0 0.00 0.19 0.19 89 1010.5
20260903201530 65 86 0.0 2.0 0.00 0.19 0.19 89 1010.5
20260903200030 65 88 0.0 2.0 0.00 0.19 0.19 89 1010.5
20260903194529 65 65 0.0 1.0 0.00 0.19 0.19 89 1010.6
20260903193027 65 65 0.0 2.0 0.00 0.19 0.19 89 1010.7
20260903191536 65 65 0.0 1.0 0.00 0.19 0.19 89 1010.8
20260903190022 65 65 1.0 3.0 0.00 0.19 0.19 89 1011.0
20260903184520 65 202 0.0 1.0 0.00 0.19 0.19 89 1011.2
20260903183027 65 202 0.0 1.0 0.00 0.19 0.19 89 1011.3
20260903181518 64 202 0.0 1.0 0.00 0.19 0.19 89 1011.5
20260903180028 64 188 0.0 2.0 0.00 0.19 0.19 89 1011.5
20260903174523 64 188 0.0 2.0 0.00 0.19 0.19 89 1011.5
20260903173018 65 188 0.0 3.0 0.00 0.19 0.19 89 1011.4
20260903171514 65 324 0.0 1.0 0.00 0.19 0.19 89 1011.4
20260903170015 64 324 1.0 2.0 0.00 0.19 0.19 89 1011.4
20260903164513 64 324 1.0 3.0 0.00 0.19 0.19 90 1011.7
20260903163009 64 234 0.0 2.0 0.00 0.19 0.19 89 1011.8
20260903161509 64 234 0.0 2.0 0.00 0.19 0.19 90 1011.9
20260903160005 64 234 0.0 2.0 0.00 0.19 0.19 90 1012.2
20260903154505 64 232 0.0 2.0 0.00 0.19 0.19 90 1012.3
20260903153002 63 146 0.0 3.0 0.00 0.19 0.19 90 1012.5
20260903151600 63 165 0.0 3.0 0.00 0.19 0.19 90 1012.7
20260903144556 63 181 0.0 2.0 0.01 0.19 0.19 90 1013.0
20260903143056 62 181 0.0 2.0 0.01 0.19 0.19 90 1013.0
20260903141552 62 181 1.0 2.0 0.01 0.19 0.19 90 1013.2
20260903140055 62 181 0.0 2.0 0.00 0.18 0.18 90 1013.2
20260903134611 61 182 0.0 1.0 0.00 0.18 0.18 90 1013.3
20260903133051 61 182 0.0 2.0 0.00 0.18 0.18 90 1013.3
20260903131549 61 182 0.0 2.0 0.01 0.18 0.18 90 1013.3
20260903130049 60 182 0.0 1.0 0.02 0.18 0.18 91 1013.5
20260903124542 60 182 0.0 1.0 0.02 0.18 0.18 90 1013.7
20260903123041 60 182 0.0 2.0 0.03 0.18 0.18 90 1013.9
20260903121550 60 182 0.0 1.0 0.03 0.17 0.17 90 1013.9
20260903120051 60 182 0.0 1.0 0.03 0.16 0.16 90 1014.2
20260903114557 60 182 0.0 2.0 0.04 0.16 0.16 90 1014.3
20260903113039 60 182 0.0 1.0 0.03 0.15 0.15 90 1014.4
20260903111538 59 182 0.0 0.0 0.02 0.14 0.14 90 1013.9
20260903110037 59 182 0.0 0.0 0.01 0.13 0.13 90 1014.2
20260903104537 59 182 0.0 1.0 0.00 0.12 0.12 90 1014.0
20260903103035 59 182 0.0 0.0 0.00 0.12 0.12 90 1013.9
20260903101533 59 182 0.0 0.0 0.01 0.12 0.12 90 1014.1
20260903100031 60 182 0.0 1.0 0.01 0.12 0.12 90 1014.2
20260903094528 60 182 0.0 3.0 0.01 0.12 0.12 90 1014.5
20260903093029 61 182 1.0 4.0 0.08 0.12 0.12 90 1014.5
20260903091526 61 164 0.0 1.0 0.10 0.11 0.11 90 1014.7
20260903090025 61 164 0.0 1.0 0.10 0.11 0.11 90 1014.7
20260903084524 61 164 1.0 2.0 0.10 0.11 0.11 90 1014.8
20260903083023 61 164 0.0 1.0 0.03 0.04 0.04 90 1015.0
20260903081522 61 164 0.0 0.0 0.00 0.01 0.01 90 1015.0
20260903080021 61 164 0.0 1.0 0.00 0.01 0.01 90 1014.7
20260903074519 61 164 0.0 0.0 0.01 0.01 0.01 90 1014.6
20260903073023 61 164 0.0 1.0 0.01 0.01 0.01 89 1014.8
20260903071518 61 164 0.0 1.0 0.01 0.01 0.01 89 1014.9
20260903070017 61 164 0.0 1.0 0.01 0.01 0.01 89 1015.2
20260903064512 61 164 0.0 1.0 0.00 0.00 0.00 89 1015.2
20260903063008 61 164 0.0 1.0 0.00 0.00 0.00 89 1016.0
20260903061506 61 164 0.0 1.0 0.00 0.00 0.00 89 1016.3
20260903060005 61 164 0.0 2.0 0.00 0.00 0.00 89 1016.7
20260903054510 61 164 0.0 1.0 0.00 0.00 0.00 89 1016.5
20260903053101 61 164 0.0 1.0 0.00 0.00 0.00 89 1016.7
20260903051559 60 164 0.0 0.0 0.00 0.00 0.00 89 1016.8
20260903050057 60 164 0.0 1.0 0.00 0.00 0.00 89 1016.9
20260903044559 60 164 0.0 1.0 0.00 0.00 0.00 89 1016.9
20260903043052 60 164 0.0 1.0 0.00 0.00 0.00 89 1017.1
20260903041607 60 164 0.0 1.0 0.00 0.00 0.00 89 1017.1
20260903040051 60 164 0.0 1.0 0.00 0.00 0.00 89 1017.3
20260903034547 60 164 0.0 1.0 0.00 0.00 0.00 89 1017.8
20260903033046 60 164 0.0 1.0 0.00 0.00 0.00 89 1018.1
20260903031544 60 164 0.0 1.0 0.00 0.00 0.00 89 1017.9